This demonstration page uses our WeatherBlox Daily Observations layout. Learn more.

Left ArrowRight Arrow

41.86663, -103.66717

Hourly Observations for March 17, 2016

Temp ( °F °C ) Dew Point ( °F °C ) Humidity (%) Winds ( mph kmh ) Pressure ( in mb ) Visibility ( mi km ) Precip ( " mm )
12:53 am 00:53 Partly Cloudy 23 -5 13 -10.6 65 65 WNW 3 6 30.07 1018 10 16 N/A
1:53 am 01:53 Mostly Clear 21 -6.1 12 -11.1 68 68 NNW 3 6 30.07 1018 10 16 N/A
2:53 am 02:53 Clear 21 -6.1 12 -11.1 68 68 NNW 5 7 30.06 1018 10 16 N/A
3:53 am 03:53 Clear 21 -6.1 12 -11.1 68 68 NNW 9 15 30.05 1018 10 16 N/A
4:53 am 04:53 Mostly Clear 22 -5.6 12 -11.1 66 66 N 8 13 30.05 1018 10 16 N/A
5:53 am 05:53 Mostly Clear 21 -6.1 12 -11.1 68 68 W 7 11 30.05 1018 10 16 N/A
6:53 am 06:53 Clear 20 -6.7 13 -10.6 74 74 NW 6 9 30.07 1018 10 16 N/A
7:53 am 07:53 Partly Cloudy 24 -4.4 14 -10 65 65 NW 7 11 30.10 1019 10 16 N/A
8:53 am 08:53 Sunny 29 -1.7 14 -10 54 54 WNW 8 13 30.10 1019 10 16 N/A
9:53 am 09:53 Sunny 37 2.8 13 -10.6 37 37 WNW 6 9 30.08 1019 10 16 N/A
10:53 am 10:53 Sunny 42 5.6 11 -11.7 28 28 VRB 5 7 30.04 1017 10 16 N/A
11:53 am 11:53 Sunny 46 7.8 9 -12.8 22 22 VRB 5 7 30.03 1017 10 16 N/A
12:53 pm 12:53 Sunny 48 8.9 6 -14.4 18 18 W 12 19 30.01 1016 10 16 N/A
1:53 pm 13:53 Partly Cloudy 48 8.9 3 -16.1 15 15 N 14 22 30.00 1016 10 16 N/A
2:53 pm 14:53 Mostly Sunny 49 9.4 4 -15.6 16 16 N 15 24 29.99 1016 10 16 N/A
3:09 pm 15:09 Mostly Sunny 47 8.3 3 -16.1 16 16 NNW 6 9 29.91 1013 10 16 N/A
3:53 pm 15:53 Mostly Cloudy 46 7.8 5 -15 18 18 N 13 20 30.00 1016 10 16 N/A
4:53 pm 16:53 Cloudy 46 7.8 4 -15.6 17 17 NE 3 6 30.01 1016 10 16 N/A
5:53 pm 17:53 Cloudy 43 6.1 9 -12.8 25 25 N 16 26 30.05 1018 10 16 N/A
6:53 pm 18:53 Cloudy 42 5.6 11 -11.7 28 28 N 12 19 30.08 1019 10 16 N/A
7:53 pm 19:53 Cloudy 39 3.9 21 -6.1 48 48 NE 16 26 30.11 1020 10 16 N/A
8:53 pm 20:53 Cloudy 36 2.2 21 -6.1 55 55 ENE 13 20 30.14 1021 10 16 N/A
9:53 pm 21:53 Cloudy 35 1.7 20 -6.7 54 54 NE 9 15 30.16 1021 10 16 N/A
10:53 pm 22:53 Cloudy 33 0.6 15 -9.4 47 47 NE 16 26 30.18 1022 10 16 N/A
11:53 pm 23:53 undefined 31 -0.6 15 -9.4 52 52 NNE 17 28 30.19 1022 N/A N/A

Powered by AerisWeather